Weather History for Eau Claire, WI

Change the Weather History Date:

Friday, May 10, 2013

  Actual Average Record
Temperature  
Mean Temperature 51 °F 56 °F  
Max Temperature 65 °F 68 °F 93 °F (1895)
Min Temperature 37 °F 44 °F 23 °F (1966)
Degree Days  
Heating Degree Days 14 10  
Month to date heating degree days 164 110  
Since 1 July heating degree days 8093 7751  
Cooling Degree Days 0 1  
Month to date cooling degree days 0 4  
Year to date cooling degree days 3 8  
Moisture  
Dew Point 30 °F    
Average Humidity 49    
Maximum Humidity 79    
Minimum Humidity 19    
Precipitation  
Precipitation T in 0.11 in 1.48 in (1920)
Month to date precipitation 2.79 1.08  
Year to date precipitation 13.56 7.26  
Snow  
Snow 0.00 in 0.00 in T in (1907)
Month to date snowfall 9.3 0.2  
Since 1 July snowfall 84.3 47.0  
Snow Depth 0.00 in    
Sea Level Pressure  
Sea Level Pressure 30.02 in    
Wind  
Wind Speed 7 mph (NNE)    
Max Wind Speed 17 mph    
Max Gust Speed 24 mph    
Visibility 10 miles    
Events      
T = Trace of Precipitation, MM = Missing Value Source: NWS Daily Summary

Daily Weather History Graph

Daily Weather History Graph

Search for Another Location

Airport:

Trip Planner

Search our weather history database for the weather conditions in past years. The results will help you decide how hot, cold, wet, or windy it might be!

Date:

Astronomy

May. 10, 2013 Rise Set
Actual Time 5:42 AM CDT 8:22 PM CDT
Civil Twilight 5:09 AM CDT 8:56 PM CDT
Nautical Twilight 4:27 AM CDT 9:38 PM CDT
Astronomical Twilight 3:39 AM CDT 10:27 PM CDT
Moon 6:07 AM CDT (5/10) 9:13 PM CDT (5/10)
Length of Visible Light 15h 46m
Length of Day
14h 39m
New Moon, 0% of the Moon is Illuminated
May 10
New Moon
May 17
First Quarter
May 24
Full
May 31
Last Quarter
Jun 8
New

Hourly Weather History & Observations

Time (CDT) Temp. Windchill Dew Point Humidity Pressure Visibility Wind Dir Wind Speed Gust Speed Precip Events Conditions
12:05 AM 42.8 °F 36.2 °F 37.4 °F 81% 30.05 in 10.0 mi NNE 12.7 mph - N/A   Overcast
12:26 AM 41.0 °F 33.1 °F 35.6 °F 81% 30.06 in 10.0 mi NE 15.0 mph 24.2 mph N/A   Overcast
12:56 AM 41.0 °F 34.3 °F 36.0 °F 82% 30.09 in 10.0 mi NE 11.5 mph 20.7 mph N/A   Overcast
1:56 AM 39.9 °F 33.4 °F 34.0 °F 79% 30.08 in 10.0 mi NE 10.4 mph - N/A   Overcast
2:56 AM 39.9 °F 32.9 °F 32.0 °F 73% 30.07 in 10.0 mi NNE 11.5 mph - N/A   Overcast
3:56 AM 39.9 °F 34.5 °F 30.9 °F 70% 30.07 in 10.0 mi NNE 8.1 mph - N/A   Overcast
4:56 AM 39.0 °F 32.3 °F 30.0 °F 70% 30.07 in 10.0 mi NNE 10.4 mph - N/A   Overcast
5:56 AM 37.0 °F 31.0 °F 30.0 °F 76% 30.08 in 10.0 mi North 8.1 mph - N/A   Scattered Clouds
6:56 AM 37.9 °F 31.5 °F 28.0 °F 68% 30.09 in 10.0 mi NNE 9.2 mph - N/A   Clear
7:56 AM 41.0 °F 34.7 °F 28.0 °F 60% 30.08 in 10.0 mi NNE 10.4 mph - N/A   Clear
8:56 AM 43.0 °F 36.8 °F 27.0 °F 53% 30.08 in 10.0 mi NNE 11.5 mph - N/A   Clear
9:56 AM 46.9 °F - 27.0 °F 46% 30.07 in 10.0 mi NNE 6.9 mph - N/A   Clear
10:56 AM 51.1 °F - 30.0 °F 44% 30.06 in 10.0 mi NNE 5.8 mph 17.3 mph N/A   Clear
11:56 AM 54.0 °F - 32.0 °F 43% 30.06 in 10.0 mi Variable 3.5 mph - N/A   Clear
12:56 PM 57.9 °F - 32.0 °F 37% 30.04 in 10.0 mi NNE 6.9 mph - N/A   Clear
1:56 PM 61.0 °F - 28.9 °F 30% 30.02 in 10.0 mi NNW 5.8 mph - N/A   Clear
2:56 PM 63.0 °F - 24.1 °F 23% 30.01 in 10.0 mi North 6.9 mph - N/A   Clear
3:56 PM 64.0 °F - 23.0 °F 21% 29.98 in 10.0 mi NE 4.6 mph - N/A   Clear
4:56 PM 64.0 °F - 23.0 °F 21% 29.95 in 10.0 mi SSW 5.8 mph - N/A   Clear
5:56 PM 64.9 °F - 21.9 °F 19% 29.93 in 10.0 mi West 8.1 mph - N/A   Clear
6:56 PM 63.0 °F - 26.1 °F 25% 29.93 in 10.0 mi WSW 8.1 mph - N/A   Clear
7:56 PM 61.0 °F - 27.0 °F 27% 29.92 in 10.0 mi Calm Calm - N/A   Clear
8:56 PM 55.9 °F - 28.9 °F 36% 29.92 in 10.0 mi Calm Calm - N/A   Clear
9:56 PM 52.0 °F - 32.0 °F 47% 29.92 in 10.0 mi SW 3.5 mph - N/A   Clear
10:56 PM 50.0 °F - 33.1 °F 52% 29.90 in 10.0 mi South 3.5 mph - N/A   Mostly Cloudy
11:56 PM 51.1 °F - 37.0 °F 59% 29.89 in 10.0 mi SSW 3.5 mph - N/A   Overcast